This is the latest recevied weather packets stored in our database for station/object 9M4GEK-3. If no packets are shown the sender has not sent any weather packets the latest 10 day(s).
| Time | Temp. | Humidity | Pressure | Rain* | Wind** | Luminosity | Snow |
|---|---|---|---|---|---|---|---|
| 1778139931 | 38.89° C | 38% | 1003.8 hPa | - | - | - | - |
| 1778139087 | 39.44° C | 37% | 1004.2 hPa | - | - | - | - |
| 1778139031 | 39.44° C | 37% | 1004.2 hPa | - | - | - | - |
| 1778138205 | 39.44° C | 38% | 1004.4 hPa | - | - | - | - |
| 1778138131 | 39.44° C | 38% | 1004.4 hPa | - | - | - | - |
| 1778137231 | 41.67° C | 33% | 1004.6 hPa | - | - | - | - |
| 1778136331 | 43.33° C | 31% | 1004.8 hPa | - | - | - | - |
| 1778135430 | 43.33° C | 32% | 1005.1 hPa | - | - | - | - |
| 1778134530 | 42.22° C | 33% | 1005.3 hPa | - | - | - | - |
| 1778133629 | 42.22° C | 33% | 1005.6 hPa | - | - | - | - |
| 1778132729 | 43.89° C | 32% | 1006 hPa | - | - | - | - |
| 1778131829 | 41.67° C | 34% | 1006.2 hPa | - | - | - | - |
| 1778130928 | 40° C | 37% | 1006.5 hPa | - | - | - | - |
| 1778130029 | 41.11° C | 35% | 1006.8 hPa | - | - | - | - |
| 1778129561 | 41.67° C | 35% | 1007.1 hPa | - | - | - | - |
| 1778129128 | 41.67° C | 35% | 1007.1 hPa | - | - | - | - |
| 1778128303 | 41.67° C | 35% | 1007.3 hPa | - | - | - | - |
| 1778128228 | 41.67° C | 35% | 1007.3 hPa | - | - | - | - |
| 1778127327 | 42.22° C | 35% | 1007.6 hPa | - | - | - | - |
| 1778126427 | 41.11° C | 36% | 1007.6 hPa | - | - | - | - |
| 1778125527 | 42.78° C | 34% | 1007.8 hPa | - | - | - | - |
| 1778124627 | 41.11° C | 37% | 1007.7 hPa | - | - | - | - |
| 1778123727 | 42.22° C | 37% | 1007.9 hPa | - | - | - | - |
| 1778122826 | 40° C | 39% | 1008 hPa | - | - | - | - |
| 1778121927 | 38.33° C | 42% | 1007.9 hPa | - | - | - | - |
* Rain since midnight (hover to see other rain measurements)
** Current wind speed in m/s (hover to see current wind gust speed)